Time,TemperatureF,DewpointF,PressureIn,WindDirection,WindDirectionDegrees,WindSpeedMPH,WindSpeedGustMPH,Humidity,HourlyPrecipIn,Conditions,Clouds,dailyrainin,SoftwareType,DateUTC
2013-03-16 00:00:00,40.2,38.1,29.93,SW,222,0.0,1.0,92,0.00,,---,0.00,VWS V14.01,2013-03-16 07:00:00,
2013-03-16 00:02:00,40.2,37.8,29.93,SW,222,0.0,0.0,91,0.00,,---,0.00,VWS V14.01,2013-03-16 07:02:00,
2013-03-16 00:09:00,39.9,37.5,29.93,SW,222,0.0,0.0,91,0.00,,---,0.00,VWS V14.01,2013-03-16 07:09:00,
2013-03-16 00:13:00,40.0,37.9,29.93,SW,222,0.0,0.0,92,0.00,,---,0.00,VWS V14.01,2013-03-16 07:13:00,
2013-03-16 00:18:00,40.4,38.3,29.93,SW,222,0.0,0.0,92,0.00,,---,0.00,VWS V14.01,2013-03-16 07:18:00,
2013-03-16 00:23:00,40.5,38.1,29.93,SW,222,0.0,0.0,91,0.00,,---,0.00,VWS V14.01,2013-03-16 07:23:00,
2013-03-16 00:28:00,40.6,38.2,29.93,SW,222,0.0,0.0,91,0.00,,---,0.00,VWS V14.01,2013-03-16 07:28:00,
2013-03-16 00:33:00,40.8,38.4,29.93,SW,222,0.0,0.0,91,0.00,,---,0.00,VWS V14.01,2013-03-16 07:33:00,
2013-03-16 00:38:00,40.6,38.2,29.93,SW,222,0.0,0.0,91,0.00,,---,0.00,VWS V14.01,2013-03-16 07:38:00,
2013-03-16 00:43:00,40.7,38.6,29.93,SW,222,0.0,0.0,92,0.00,,---,0.00,VWS V14.01,2013-03-16 07:43:00,
2013-03-16 00:48:00,40.9,38.8,29.93,SW,222,0.0,0.0,92,0.00,,---,0.00,VWS V14.01,2013-03-16 07:48:00,
2013-03-16 00:53:00,40.9,38.5,29.92,SW,222,0.0,0.0,91,0.00,,---,0.00,VWS V14.01,2013-03-16 07:53:00,
2013-03-16 00:58:00,40.7,38.3,29.92,SW,222,0.0,0.0,91,0.00,,---,0.00,VWS V14.01,2013-03-16 07:58:00,
2013-03-16 01:04:00,41.1,40.3,29.92,SW,222,1.0,1.0,97,0.00,,---,0.00,VWS V14.01,2013-03-16 08:04:00,
2013-03-16 01:09:00,41.3,38.9,29.92,SW,222,0.0,2.0,91,0.00,,---,0.00,VWS V14.01,2013-03-16 08:09:00,
2013-03-16 01:14:00,41.5,38.8,29.92,SW,222,1.0,2.0,90,0.00,,---,0.00,VWS V14.01,2013-03-16 08:14:00,
2013-03-16 01:19:00,41.1,38.4,29.92,SW,222,0.0,2.0,90,0.00,,---,0.00,VWS V14.01,2013-03-16 08:19:00,
2013-03-16 01:24:00,40.9,38.5,29.92,SW,222,0.0,2.0,91,0.00,,---,0.00,VWS V14.01,2013-03-16 08:24:00,
2013-03-16 01:29:00,40.8,38.4,29.92,SW,222,0.0,2.0,91,0.00,,---,0.00,VWS V14.01,2013-03-16 08:29:00,
2013-03-16 01:34:00,40.8,38.4,29.92,SW,222,0.0,2.0,91,0.00,,---,0.00,VWS V14.01,2013-03-16 08:34:00,
2013-03-16 01:39:00,40.6,38.2,29.92,SW,222,0.0,2.0,91,0.00,,---,0.00,VWS V14.01,2013-03-16 08:39:00,
2013-03-16 01:44:00,40.4,38.0,29.92,SW,222,0.0,2.0,91,0.00,,---,0.00,VWS V14.01,2013-03-16 08:44:00,
2013-03-16 01:49:00,40.6,38.5,29.92,SW,222,1.0,2.0,92,0.00,,---,0.00,VWS V14.01,2013-03-16 08:49:00,
2013-03-16 01:54:00,40.5,38.1,29.92,SW,222,0.0,3.0,91,0.00,,---,0.00,VWS V14.01,2013-03-16 08:54:00,
2013-03-16 01:59:00,40.6,38.5,29.92,SW,222,0.0,3.0,92,0.00,,---,0.00,VWS V14.01,2013-03-16 08:59:00,
2013-03-16 02:00:00,40.6,38.5,29.92,SW,222,0.0,3.0,92,0.00,,---,0.00,VWS V14.01,2013-03-16 09:00:00,
2013-03-16 02:04:00,40.4,38.0,29.92,SW,222,0.0,0.0,91,0.00,,---,0.00,VWS V14.01,2013-03-16 09:04:00,
2013-03-16 02:09:00,40.4,38.3,29.92,SW,222,0.0,0.0,92,0.00,,---,0.00,VWS V14.01,2013-03-16 09:09:00,
2013-03-16 02:14:00,40.2,38.1,29.92,SW,222,0.0,0.0,92,0.00,,---,0.00,VWS V14.01,2013-03-16 09:14:00,
2013-03-16 02:19:00,40.1,38.0,29.92,SW,222,0.0,0.0,92,0.00,,---,0.00,VWS V14.01,2013-03-16 09:19:00,
2013-03-16 02:24:00,39.5,37.4,29.92,SW,222,0.0,0.0,92,0.00,,---,0.00,VWS V14.01,2013-03-16 09:24:00,
2013-03-16 02:29:00,39.1,37.0,29.92,SW,222,0.0,0.0,92,0.00,,---,0.00,VWS V14.01,2013-03-16 09:29:00,
2013-03-16 02:34:00,38.8,37.0,29.91,SW,222,0.0,0.0,93,0.00,,---,0.00,VWS V14.01,2013-03-16 09:34:00,
2013-03-16 02:39:00,38.7,37.1,29.91,SW,222,0.0,0.0,94,0.00,,---,0.00,VWS V14.01,2013-03-16 09:39:00,
2013-03-16 02:44:00,38.4,36.8,29.91,SW,222,0.0,0.0,94,0.00,,---,0.00,VWS V14.01,2013-03-16 09:44:00,
2013-03-16 02:49:00,38.1,36.5,29.91,SW,222,0.0,0.0,94,0.00,,---,0.00,VWS V14.01,2013-03-16 09:49:00,
2013-03-16 02:54:00,38.0,36.4,29.91,SW,222,0.0,0.0,94,0.00,,---,0.00,VWS V14.01,2013-03-16 09:54:00,
2013-03-16 02:59:00,37.7,36.1,29.90,SW,222,0.0,0.0,94,0.00,,---,0.00,VWS V14.01,2013-03-16 09:59:00,
2013-03-16 03:00:00,37.4,35.8,29.90,SW,222,0.0,0.0,94,0.00,,---,0.00,VWS V14.01,2013-03-16 10:00:00,
2013-03-16 03:04:00,37.3,36.0,29.91,SW,222,0.0,0.0,95,0.00,,---,0.00,VWS V14.01,2013-03-16 10:04:00,
2013-03-16 03:09:00,37.1,35.8,29.90,SW,222,0.0,0.0,95,0.00,,---,0.00,VWS V14.01,2013-03-16 10:09:00,
2013-03-16 03:14:00,37.0,35.7,29.90,SW,222,0.0,0.0,95,0.00,,---,0.00,VWS V14.01,2013-03-16 10:14:00,
2013-03-16 03:19:00,36.7,35.4,29.91,SW,222,0.0,0.0,95,0.00,,---,0.00,VWS V14.01,2013-03-16 10:19:00,
2013-03-16 03:24:00,36.9,35.6,29.90,SW,222,0.0,0.0,95,0.00,,---,0.00,VWS V14.01,2013-03-16 10:24:00,
2013-03-16 03:29:00,36.8,35.5,29.90,SW,222,0.0,0.0,95,0.00,,---,0.00,VWS V14.01,2013-03-16 10:29:00,
2013-03-16 03:34:00,36.8,35.5,29.90,SW,222,0.0,0.0,95,0.00,,---,0.00,VWS V14.01,2013-03-16 10:34:00,
2013-03-16 03:39:00,37.0,36.0,29.90,SW,222,0.0,0.0,96,0.00,,---,0.00,VWS V14.01,2013-03-16 10:39:00,
2013-03-16 03:44:00,37.2,36.2,29.90,SW,222,1.0,1.0,96,0.00,,---,0.00,VWS V14.01,2013-03-16 10:44:00,
2013-03-16 03:49:00,37.3,36.3,29.89,SW,222,0.0,3.0,96,0.00,,---,0.00,VWS V14.01,2013-03-16 10:49:00,
2013-03-16 03:54:00,37.5,36.2,29.89,SW,222,0.0,3.0,95,0.00,,---,0.00,VWS V14.01,2013-03-16 10:54:00,
2013-03-16 03:59:00,37.7,36.4,29.89,SW,222,0.0,3.0,95,0.00,,---,0.00,VWS V14.01,2013-03-16 10:59:00,
2013-03-16 04:00:00,37.8,36.5,29.89,SW,222,0.0,3.0,95,0.00,,---,0.00,VWS V14.01,2013-03-16 11:00:00,
2013-03-16 04:04:00,37.9,36.6,29.89,SW,222,0.0,2.0,95,0.00,,---,0.00,VWS V14.01,2013-03-16 11:04:00,
2013-03-16 04:09:00,38.2,36.6,29.89,SW,222,0.0,2.0,94,0.00,,---,0.00,VWS V14.01,2013-03-16 11:09:00,
2013-03-16 04:14:00,38.4,36.8,29.89,SW,222,0.0,3.0,94,0.00,,---,0.00,VWS V14.01,2013-03-16 11:14:00,
2013-03-16 04:19:00,38.6,37.0,29.89,SW,222,2.0,3.0,94,0.00,,---,0.00,VWS V14.01,2013-03-16 11:19:00,
2013-03-16 04:24:00,38.6,37.0,29.89,SW,222,0.0,4.0,94,0.00,,---,0.00,VWS V14.01,2013-03-16 11:24:00,
2013-03-16 04:29:00,38.8,37.2,29.89,SW,222,3.0,4.0,94,0.00,,---,0.00,VWS V14.01,2013-03-16 11:29:00,
2013-03-16 04:34:00,38.9,37.3,29.89,WNW,283,0.0,4.0,94,0.00,,---,0.00,VWS V14.01,2013-03-16 11:34:00,
2013-03-16 04:39:00,39.0,37.2,29.89,WNW,282,1.0,4.0,93,0.00,,---,0.00,VWS V14.01,2013-03-16 11:39:00,
2013-03-16 04:44:00,39.0,37.2,29.89,WNW,282,1.0,4.0,93,0.00,,---,0.00,VWS V14.01,2013-03-16 11:44:00,
2013-03-16 04:49:00,39.0,37.2,29.88,WNW,282,0.0,4.0,93,0.00,,---,0.00,VWS V14.01,2013-03-16 11:49:00,
2013-03-16 04:54:00,38.9,37.0,29.88,WNW,282,2.0,4.0,93,0.00,,---,0.00,VWS V14.01,2013-03-16 11:54:00,
2013-03-16 04:59:00,38.9,37.3,29.88,SSW,209,0.0,5.0,94,0.00,,---,0.00,VWS V14.01,2013-03-16 11:59:00,
2013-03-16 05:00:00,38.9,37.3,29.88,SSW,209,1.0,5.0,94,0.00,,---,0.00,VWS V14.01,2013-03-16 12:00:00,
2013-03-16 05:04:00,38.9,37.3,29.88,SSW,209,0.0,2.0,94,0.00,,---,0.00,VWS V14.01,2013-03-16 12:04:00,
2013-03-16 05:09:00,38.9,37.3,29.88,SSW,209,1.0,2.0,94,0.00,,---,0.00,VWS V14.01,2013-03-16 12:09:00,
2013-03-16 05:14:00,38.9,37.3,29.88,SSW,211,1.0,3.0,94,0.00,,---,0.00,VWS V14.01,2013-03-16 12:14:00,
2013-03-16 05:19:00,38.9,37.3,29.88,SSE,168,2.0,4.0,94,0.00,,---,0.00,VWS V14.01,2013-03-16 12:19:00,
2013-03-16 05:24:00,39.1,37.5,29.88,SSE,168,0.0,4.0,94,0.00,,---,0.00,VWS V14.01,2013-03-16 12:24:00,
2013-03-16 05:29:00,39.1,37.5,29.89,South,170,2.0,4.0,94,0.00,,---,0.00,VWS V14.01,2013-03-16 12:29:00,
2013-03-16 05:34:00,39.1,37.2,29.88,SW,219,2.0,5.0,93,0.00,,---,0.00,VWS V14.01,2013-03-16 12:34:00,
2013-03-16 05:39:00,39.1,37.2,29.88,SW,219,0.0,5.0,93,0.00,,---,0.00,VWS V14.01,2013-03-16 12:39:00,
2013-03-16 05:44:00,39.0,37.2,29.88,SSW,205,2.0,6.0,93,0.00,,---,0.00,VWS V14.01,2013-03-16 12:44:00,
2013-03-16 05:49:00,39.0,37.2,29.88,South,178,0.0,6.0,93,0.00,,---,0.00,VWS V14.01,2013-03-16 12:49:00,
2013-03-16 05:54:00,39.0,37.2,29.88,South,178,0.0,6.0,93,0.00,,---,0.00,VWS V14.01,2013-03-16 12:54:00,
2013-03-16 05:59:00,38.9,37.0,29.88,SSW,205,1.0,6.0,93,0.00,,---,0.00,VWS V14.01,2013-03-16 12:59:00,
2013-03-16 06:00:00,38.9,37.0,29.88,SSW,205,0.0,6.0,93,0.00,,---,0.00,VWS V14.01,2013-03-16 13:00:00,
2013-03-16 06:04:00,38.8,37.0,29.87,SSW,205,0.0,1.0,93,0.00,,---,0.00,VWS V14.01,2013-03-16 13:04:00,
2013-03-16 06:09:00,38.4,36.6,29.87,SSW,205,0.0,1.0,93,0.00,,---,0.00,VWS V14.01,2013-03-16 13:09:00,
2013-03-16 06:14:00,38.0,36.2,29.87,SSW,205,0.0,1.0,93,0.00,,---,0.00,VWS V14.01,2013-03-16 13:14:00,
2013-03-16 06:19:00,37.8,36.2,29.87,SSW,205,0.0,3.0,94,0.00,,---,0.00,VWS V14.01,2013-03-16 13:19:00,
2013-03-16 06:24:00,37.7,35.9,29.87,SSW,205,0.0,3.0,93,0.00,,---,0.00,VWS V14.01,2013-03-16 13:24:00,
2013-03-16 06:29:00,37.7,36.1,29.87,SW,232,0.0,4.0,94,0.00,,---,0.00,VWS V14.01,2013-03-16 13:29:00,
2013-03-16 06:34:00,37.7,36.1,29.87,SW,232,0.0,4.0,94,0.00,,---,0.00,VWS V14.01,2013-03-16 13:34:00,
2013-03-16 06:39:00,37.4,35.8,29.87,SW,232,0.0,4.0,94,0.00,,---,0.00,VWS V14.01,2013-03-16 13:39:00,
2013-03-16 06:44:00,37.2,35.6,29.87,SW,232,0.0,4.0,94,0.00,,---,0.00,VWS V14.01,2013-03-16 13:44:00,
2013-03-16 06:49:00,36.9,35.3,29.87,SW,232,2.0,4.0,94,0.00,,---,0.00,VWS V14.01,2013-03-16 13:49:00,
2013-03-16 06:54:00,36.9,35.6,29.86,SW,232,2.0,4.0,95,0.00,,---,0.00,VWS V14.01,2013-03-16 13:54:00,
2013-03-16 06:59:00,36.7,35.4,29.86,SW,232,0.0,4.0,95,0.00,,---,0.00,VWS V14.01,2013-03-16 13:59:00,
2013-03-16 07:00:00,36.6,35.3,29.86,SW,232,0.0,4.0,95,0.00,,---,0.00,VWS V14.01,2013-03-16 14:00:00,
2013-03-16 07:04:00,36.5,35.2,29.86,SW,232,0.0,1.0,95,0.00,,---,0.00,VWS V14.01,2013-03-16 14:04:00,
2013-03-16 07:09:00,36.2,34.9,29.86,SW,232,0.0,1.0,95,0.00,,---,0.00,VWS V14.01,2013-03-16 14:09:00,
2013-03-16 07:14:00,35.9,34.6,29.86,SW,232,0.0,1.0,95,0.00,,---,0.00,VWS V14.01,2013-03-16 14:14:00,
2013-03-16 07:19:00,35.6,34.3,29.85,SW,232,0.0,1.0,95,0.00,,---,0.00,VWS V14.01,2013-03-16 14:19:00,
2013-03-16 07:24:00,35.4,34.4,29.85,SW,232,0.0,1.0,96,0.00,,---,0.00,VWS V14.01,2013-03-16 14:24:00,
2013-03-16 07:29:00,35.7,34.7,29.85,SW,232,0.0,1.0,96,0.00,,---,0.00,VWS V14.01,2013-03-16 14:29:00,
2013-03-16 07:34:00,35.9,34.9,29.86,SW,232,0.0,1.0,96,0.00,,---,0.00,VWS V14.01,2013-03-16 14:34:00,
2013-03-16 07:39:00,35.6,34.6,29.85,SW,232,0.0,1.0,96,0.00,,---,0.00,VWS V14.01,2013-03-16 14:39:00,
2013-03-16 07:44:00,35.7,34.7,29.85,SW,232,0.0,1.0,96,0.00,,---,0.00,VWS V14.01,2013-03-16 14:44:00,
2013-03-16 07:49:00,35.6,34.6,29.85,SW,232,1.0,1.0,96,0.00,,---,0.00,VWS V14.01,2013-03-16 14:49:00,
2013-03-16 07:54:00,36.1,35.3,29.84,SW,232,0.0,1.0,97,0.00,,---,0.00,VWS V14.01,2013-03-16 14:54:00,
2013-03-16 07:59:00,36.4,35.4,29.85,SW,232,0.0,1.0,96,0.00,,---,0.00,VWS V14.01,2013-03-16 14:59:00,
2013-03-16 08:00:00,36.4,35.4,29.85,SW,232,0.0,1.0,96,0.00,,---,0.00,VWS V14.01,2013-03-16 15:00:00,
2013-03-16 08:04:00,36.8,35.8,29.85,SW,232,0.0,0.0,96,0.00,,---,0.00,VWS V14.01,2013-03-16 15:04:00,
2013-03-16 08:09:00,37.0,36.0,29.85,SW,232,0.0,2.0,96,0.00,,---,0.00,VWS V14.01,2013-03-16 15:09:00,
2013-03-16 08:14:00,37.3,36.3,29.85,SE,144,2.0,4.0,96,0.00,,---,0.00,VWS V14.01,2013-03-16 15:14:00,
2013-03-16 08:19:00,37.5,36.5,29.85,SE,144,0.0,4.0,96,0.00,,---,0.00,VWS V14.01,2013-03-16 15:19:00,
2013-03-16 08:24:00,37.8,36.8,29.85,SE,146,1.0,4.0,96,0.00,,---,0.00,VWS V14.01,2013-03-16 15:24:00,
2013-03-16 08:29:00,38.1,36.8,29.85,SSW,194,0.0,5.0,95,0.00,,---,0.00,VWS V14.01,2013-03-16 15:29:00,
2013-03-16 08:34:00,38.4,37.1,29.85,SSE,163,0.0,5.0,95,0.00,,---,0.00,VWS V14.01,2013-03-16 15:34:00,
2013-03-16 08:39:00,38.7,37.4,29.85,SSE,163,2.0,5.0,95,0.00,,---,0.00,VWS V14.01,2013-03-16 15:39:00,
2013-03-16 08:44:00,39.0,37.4,29.84,SSE,168,1.0,6.0,94,0.00,,---,0.00,VWS V14.01,2013-03-16 15:44:00,
2013-03-16 08:49:00,39.2,37.6,29.84,SSW,200,2.0,8.0,94,0.00,,---,0.00,VWS V14.01,2013-03-16 15:49:00,
2013-03-16 08:54:00,39.5,37.7,29.84,SSW,202,3.0,8.0,93,0.00,,---,0.00,VWS V14.01,2013-03-16 15:54:00,
2013-03-16 08:59:00,39.7,37.8,29.84,SSW,202,1.0,8.0,93,0.00,,---,0.00,VWS V14.01,2013-03-16 15:59:00,
2013-03-16 09:00:00,39.8,37.9,29.84,ESE,121,1.0,8.0,93,0.00,,---,0.00,VWS V14.01,2013-03-16 16:00:00,
2013-03-16 09:04:00,39.8,37.7,29.84,SW,221,4.0,6.0,92,0.00,,---,0.00,VWS V14.01,2013-03-16 16:04:00,
2013-03-16 09:09:00,39.9,37.8,29.85,SW,229,2.0,9.0,92,0.00,,---,0.00,VWS V14.01,2013-03-16 16:09:00,
2013-03-16 09:14:00,39.9,37.8,29.85,SSW,199,3.0,9.0,92,0.00,,---,0.00,VWS V14.01,2013-03-16 16:14:00,
2013-03-16 09:20:00,40.1,38.0,29.85,SW,234,2.0,9.0,92,0.00,,---,0.00,VWS V14.01,2013-03-16 16:20:00,
2013-03-16 09:25:00,40.1,38.0,29.85,South,182,1.0,9.0,92,0.00,,---,0.00,VWS V14.01,2013-03-16 16:25:00,
2013-03-16 09:31:00,40.1,38.0,29.85,SSW,196,2.0,9.0,92,0.00,,---,0.00,VWS V14.01,2013-03-16 16:31:00,
2013-03-16 09:36:00,40.3,38.2,29.85,SSW,194,2.0,9.0,92,0.00,,---,0.00,VWS V14.01,2013-03-16 16:36:00,
2013-03-16 09:41:00,40.5,38.4,29.85,SSW,205,1.0,9.0,92,0.00,,---,0.00,VWS V14.01,2013-03-16 16:41:00,
2013-03-16 09:46:00,40.9,38.8,29.84,SSW,205,0.0,9.0,92,0.00,,---,0.00,VWS V14.01,2013-03-16 16:46:00,
2013-03-16 09:52:00,40.9,38.5,29.84,SSE,163,2.0,9.0,91,0.00,,---,0.00,VWS V14.01,2013-03-16 16:52:00,
2013-03-16 09:57:00,41.5,39.1,29.84,SSW,204,0.0,3.0,91,0.00,,---,0.00,VWS V14.01,2013-03-16 16:57:00,
2013-03-16 10:02:00,41.7,39.0,29.84,South,189,2.0,5.0,90,0.00,,---,0.00,VWS V14.01,2013-03-16 17:02:00,
2013-03-16 10:07:00,41.9,39.5,29.84,SW,234,3.0,8.0,91,0.00,,---,0.00,VWS V14.01,2013-03-16 17:07:00,
2013-03-16 10:12:00,41.9,39.2,29.84,SSE,161,1.0,9.0,90,0.00,,---,0.00,VWS V14.01,2013-03-16 17:12:00,
2013-03-16 10:17:00,41.9,38.9,29.84,SW,217,2.0,9.0,89,0.00,,---,0.00,VWS V14.01,2013-03-16 17:17:00,
2013-03-16 10:22:00,42.5,39.8,29.83,SSW,205,2.0,9.0,90,0.00,,---,0.00,VWS V14.01,2013-03-16 17:22:00,
2013-03-16 10:27:00,43.3,40.3,29.83,WSW,246,3.0,9.0,89,0.00,,---,0.00,VWS V14.01,2013-03-16 17:27:00,
2013-03-16 10:32:00,43.6,40.0,29.83,South,181,3.0,9.0,87,0.00,,---,0.00,VWS V14.01,2013-03-16 17:32:00,
2013-03-16 10:37:00,44.1,40.8,29.83,SW,218,5.0,9.0,88,0.00,,---,0.00,VWS V14.01,2013-03-16 17:37:00,
2013-03-16 10:42:00,44.2,40.6,29.83,SSW,213,1.0,9.0,87,0.00,,---,0.00,VWS V14.01,2013-03-16 17:42:00,
2013-03-16 10:47:00,44.9,40.4,29.83,SW,218,1.0,9.0,84,0.00,,---,0.00,VWS V14.01,2013-03-16 17:47:00,
2013-03-16 10:52:00,45.2,40.7,29.83,SW,224,3.0,9.0,84,0.00,,---,0.00,VWS V14.01,2013-03-16 17:52:00,
2013-03-16 10:57:00,45.1,40.2,29.83,SSW,200,3.0,9.0,83,0.00,,---,0.00,VWS V14.01,2013-03-16 17:57:00,
2013-03-16 11:02:00,44.9,40.4,29.83,SSW,193,1.0,5.0,84,0.00,,---,0.00,VWS V14.01,2013-03-16 18:02:00,
2013-03-16 11:07:00,44.9,40.4,29.83,SSW,206,2.0,7.0,84,0.00,,---,0.00,VWS V14.01,2013-03-16 18:07:00,
2013-03-16 11:12:00,44.9,40.1,29.83,SSW,209,6.0,9.0,83,0.00,,---,0.00,VWS V14.01,2013-03-16 18:12:00,
2013-03-16 11:17:00,45.2,40.3,29.82,SE,128,6.0,9.0,83,0.00,,---,0.00,VWS V14.01,2013-03-16 18:17:00,
2013-03-16 11:22:00,45.5,40.7,29.82,SW,217,2.0,9.0,83,0.00,,---,0.00,VWS V14.01,2013-03-16 18:22:00,
2013-03-16 11:27:00,45.6,41.0,29.82,West,273,7.0,10.0,84,0.00,,---,0.00,VWS V14.01,2013-03-16 18:27:00,
2013-03-16 11:33:00,46.1,40.9,29.82,SSW,209,3.0,10.0,82,0.00,,---,0.00,VWS V14.01,2013-03-16 18:33:00,
2013-03-16 11:38:00,46.6,40.8,29.82,WSW,248,5.0,10.0,80,0.00,,---,0.00,VWS V14.01,2013-03-16 18:38:00,
2013-03-16 11:43:00,45.9,40.7,29.82,SSW,194,3.0,10.0,82,0.00,,---,0.00,VWS V14.01,2013-03-16 18:43:00,
2013-03-16 11:49:00,46.2,41.0,29.82,SW,224,3.0,12.0,82,0.00,,---,0.00,VWS V14.01,2013-03-16 18:49:00,
2013-03-16 11:55:00,46.8,41.3,29.81,South,179,2.0,12.0,81,0.00,,---,0.00,VWS V14.01,2013-03-16 18:55:00,
2013-03-16 12:02:00,47.7,41.8,29.81,SSW,200,3.0,6.0,80,0.00,,---,0.00,VWS V14.01,2013-03-16 19:02:00,
2013-03-16 12:07:00,47.7,41.8,29.81,SW,232,4.0,7.0,80,0.00,,---,0.00,VWS V14.01,2013-03-16 19:07:00,
2013-03-16 12:12:00,47.2,40.7,29.80,SW,232,5.0,15.0,78,0.00,,---,0.00,VWS V14.01,2013-03-16 19:12:00,
2013-03-16 12:17:00,47.8,42.3,29.80,SW,223,8.0,15.0,81,0.00,,---,0.00,VWS V14.01,2013-03-16 19:17:00,
2013-03-16 12:22:00,47.7,41.2,29.79,SSW,213,2.0,15.0,78,0.00,,---,0.00,VWS V14.01,2013-03-16 19:22:00,
2013-03-16 12:27:00,48.4,41.9,29.79,SW,231,5.0,15.0,78,0.00,,---,0.00,VWS V14.01,2013-03-16 19:27:00,
2013-03-16 12:33:00,47.9,40.7,29.79,WSW,250,7.0,15.0,76,0.00,,---,0.00,VWS V14.01,2013-03-16 19:33:00,
2013-03-16 12:38:00,48.0,40.5,29.79,NNE,16,4.0,15.0,75,0.00,,---,0.00,VWS V14.01,2013-03-16 19:38:00,
2013-03-16 12:43:00,48.4,40.8,29.78,SSW,202,3.0,15.0,75,0.00,,---,0.00,VWS V14.01,2013-03-16 19:43:00,
2013-03-16 12:48:00,49.1,41.2,29.78,SSW,209,6.0,15.0,74,0.00,,---,0.00,VWS V14.01,2013-03-16 19:48:00,
2013-03-16 12:53:00,49.7,41.8,29.78,SSW,192,6.0,15.0,74,0.00,,---,0.00,VWS V14.01,2013-03-16 19:53:00,
2013-03-16 12:58:00,49.4,40.4,29.77,SSW,213,5.0,15.0,71,0.00,,---,0.00,VWS V14.01,2013-03-16 19:58:00,
2013-03-16 13:03:00,49.7,40.3,29.77,WNW,284,5.0,14.0,70,0.00,,---,0.00,VWS V14.01,2013-03-16 20:03:00,
2013-03-16 13:08:00,51.3,42.6,29.76,SW,232,2.0,14.0,72,0.00,,---,0.00,VWS V14.01,2013-03-16 20:08:00,
2013-03-16 13:13:00,52.1,40.7,29.77,SW,226,8.0,14.0,65,0.00,,---,0.00,VWS V14.01,2013-03-16 20:13:00,
2013-03-16 13:18:00,51.2,39.8,29.76,WSW,237,9.0,14.0,65,0.00,,---,0.00,VWS V14.01,2013-03-16 20:18:00,
2013-03-16 13:23:00,51.4,41.2,29.76,SSW,207,8.0,14.0,68,0.00,,---,0.00,VWS V14.01,2013-03-16 20:23:00,
2013-03-16 13:28:00,51.7,39.9,29.75,South,188,5.0,14.0,64,0.00,,---,0.00,VWS V14.01,2013-03-16 20:28:00,
2013-03-16 13:33:00,51.9,39.7,29.75,WSW,243,3.0,14.0,63,0.00,,---,0.00,VWS V14.01,2013-03-16 20:33:00,
2013-03-16 13:38:00,51.4,39.2,29.75,SW,221,2.0,14.0,63,0.00,,---,0.00,VWS V14.01,2013-03-16 20:38:00,
2013-03-16 13:43:00,50.5,38.8,29.75,SSE,166,2.0,14.0,64,0.00,,---,0.00,VWS V14.01,2013-03-16 20:43:00,
2013-03-16 13:48:00,51.2,39.8,29.75,SW,226,5.0,14.0,65,0.00,,---,0.00,VWS V14.01,2013-03-16 20:48:00,
2013-03-16 13:53:00,51.0,39.3,29.75,SW,228,4.0,14.0,64,0.00,,---,0.00,VWS V14.01,2013-03-16 20:53:00,
2013-03-16 13:58:00,50.2,37.7,29.74,SSW,208,8.0,14.0,62,0.00,,---,0.00,VWS V14.01,2013-03-16 20:58:00,
2013-03-16 14:03:00,50.0,37.5,29.74,South,181,4.0,11.0,62,0.00,,---,0.00,VWS V14.01,2013-03-16 21:03:00,
2013-03-16 14:08:00,51.0,38.0,29.73,SW,214,2.0,11.0,61,0.00,,---,0.00,VWS V14.01,2013-03-16 21:08:00,
2013-03-16 14:13:00,50.3,37.8,29.73,SW,222,6.0,13.0,62,0.00,,---,0.00,VWS V14.01,2013-03-16 21:13:00,
2013-03-16 14:18:00,50.5,38.0,29.73,SSW,209,3.0,13.0,62,0.00,,---,0.00,VWS V14.01,2013-03-16 21:18:00,
2013-03-16 14:23:00,49.9,37.0,29.72,SW,225,8.0,17.0,61,0.00,,---,0.00,VWS V14.01,2013-03-16 21:23:00,
2013-03-16 14:28:00,49.5,37.0,29.72,WNW,289,6.0,17.0,62,0.00,,---,0.00,VWS V14.01,2013-03-16 21:28:00,
2013-03-16 14:35:00,50.5,38.8,29.72,SW,227,5.0,17.0,64,0.00,,---,0.00,VWS V14.01,2013-03-16 21:35:00,
2013-03-16 14:40:00,50.4,37.5,29.71,SW,225,7.0,17.0,61,0.00,,---,0.00,VWS V14.01,2013-03-16 21:40:00,
2013-03-16 15:00:00,50.0,37.9,29.70,SW,225,5.0,17.0,63,0.00,,---,0.00,VWS V14.01,2013-03-16 22:00:00,
2013-03-16 16:00:00,48.1,35.7,29.68,SW,225,6.0,17.0,62,0.00,,---,0.00,VWS V14.01,2013-03-16 23:00:00,
2013-03-16 17:12:00,44.6,36.2,29.66,WNW,290,3.0,6.0,72,0.00,,---,0.00,VWS V14.01,2013-03-17 00:12:00,
2013-03-16 17:17:00,43.6,36.2,29.67,SSW,198,3.0,7.0,75,0.00,,---,0.00,VWS V14.01,2013-03-17 00:17:00,
2013-03-16 17:22:00,43.1,37.4,29.67,SE,140,6.0,14.0,80,0.00,,---,0.00,VWS V14.01,2013-03-17 00:22:00,
2013-03-16 17:27:00,41.9,37.1,29.67,SW,225,5.0,14.0,83,0.01,,---,0.01,VWS V14.01,2013-03-17 00:27:00,
2013-03-16 17:32:00,40.7,36.5,29.67,SW,224,10.0,16.0,85,0.01,,---,0.01,VWS V14.01,2013-03-17 00:32:00,
2013-03-16 17:37:00,40.1,36.3,29.67,SW,227,4.0,16.0,86,0.01,,---,0.01,VWS V14.01,2013-03-17 00:37:00,
2013-03-16 17:42:00,40.0,36.5,29.67,WSW,243,5.0,17.0,87,0.01,,---,0.01,VWS V14.01,2013-03-17 00:42:00,
2013-03-16 17:47:00,40.0,36.7,29.66,WSW,237,2.0,17.0,88,0.01,,---,0.01,VWS V14.01,2013-03-17 00:47:00,
2013-03-16 17:52:00,40.3,37.3,29.66,SW,231,2.0,17.0,89,0.02,,---,0.02,VWS V14.01,2013-03-17 00:52:00,
2013-03-16 17:57:00,40.6,37.3,29.65,SSE,155,5.0,17.0,88,0.02,,---,0.02,VWS V14.01,2013-03-17 00:57:00,
2013-03-16 18:02:00,40.9,37.9,29.65,WSW,252,1.0,1.0,89,0.00,,---,0.02,VWS V14.01,2013-03-17 01:02:00,
2013-03-16 18:08:00,41.1,38.1,29.65,SW,235,4.0,4.0,89,0.00,,---,0.02,VWS V14.01,2013-03-17 01:08:00,
2013-03-16 18:13:00,41.3,38.3,29.65,WSW,250,2.0,4.0,89,0.01,,---,0.03,VWS V14.01,2013-03-17 01:13:00,
2013-03-16 18:18:00,41.3,38.6,29.65,WSW,250,0.0,4.0,90,0.01,,---,0.03,VWS V14.01,2013-03-17 01:18:00,
2013-03-16 18:23:00,41.4,38.7,29.64,South,188,2.0,8.0,90,0.01,,---,0.03,VWS V14.01,2013-03-17 01:23:00,
2013-03-16 18:28:00,41.6,38.3,29.64,SW,229,3.0,8.0,88,0.01,,---,0.03,VWS V14.01,2013-03-17 01:28:00,
2013-03-16 18:33:00,41.8,37.9,29.64,SSW,205,5.0,10.0,86,0.01,,---,0.03,VWS V14.01,2013-03-17 01:33:00,
2013-03-16 18:38:00,42.0,37.5,29.64,South,181,3.0,13.0,84,0.01,,---,0.03,VWS V14.01,2013-03-17 01:38:00,
2013-03-16 18:43:00,41.8,37.6,29.64,SSW,213,5.0,14.0,85,0.02,,---,0.04,VWS V14.01,2013-03-17 01:43:00,
2013-03-16 18:48:00,41.6,37.4,29.63,SSW,205,9.0,14.0,85,0.02,,---,0.04,VWS V14.01,2013-03-17 01:48:00,
2013-03-16 18:52:00,41.3,37.4,29.63,SW,234,5.0,14.0,86,0.02,,---,0.04,VWS V14.01,2013-03-17 01:52:00,
2013-03-16 18:58:00,41.1,37.2,29.63,South,170,4.0,14.0,86,0.02,,---,0.04,VWS V14.01,2013-03-17 01:58:00,
2013-03-16 19:03:00,40.9,37.3,29.63,SW,223,5.0,7.0,87,0.02,,---,0.04,VWS V14.01,2013-03-17 02:03:00,
2013-03-16 19:08:00,40.7,37.1,29.63,SW,217,4.0,11.0,87,0.02,,---,0.04,VWS V14.01,2013-03-17 02:08:00,
2013-03-16 19:13:00,40.6,37.0,29.63,SSE,163,6.0,11.0,87,0.02,,---,0.04,VWS V14.01,2013-03-17 02:13:00,
2013-03-16 20:00:00,40.2,37.2,29.61,SSW,202,4.0,13.0,89,0.04,,---,0.06,VWS V14.01,2013-03-17 03:00:00,
2013-03-16 21:00:00,39.9,36.1,29.60,SW,225,4.0,12.0,86,0.03,,---,0.07,VWS V14.01,2013-03-17 04:00:00,
2013-03-16 22:00:00,39.8,34.5,29.59,SW,225,4.0,11.0,81,0.01,,---,0.07,VWS V14.01,2013-03-17 05:00:00,
2013-03-16 23:00:00,38.1,31.5,29.59,SW,225,4.0,16.0,77,0.00,,---,0.07,VWS V14.01,2013-03-17 06:00:00,